"Pseudo-MPEC" for ZLB2BED

Created 2018 Jun 18 11:18:56 UT using Find_Orb

Click here for an explanation of pseudo-MPECs

 
 Astrometry: 
     ZLB2BED  C2018 06 12.42572 23 40 40.50 +08 09 22.9          20.2 GUNEOCPG96
     ZLB2BED  C2018 06 12.43005 23 40 41.03 +08 09 31.0          20.8 GUNEOCPG96
     ZLB2BED  C2018 06 12.43441 23 40 41.61 +08 09 39.9          20.9 GUNEOCPG96
     ZLB2BED  C2018 06 12.43875 23 40 42.16 +08 09 48.2          20.6 GUNEOCPG96
     ZLB2BED  C2018 06 12.44545 23 40 42.99 +08 10 01.5          21.0 GUNEOCPG96
     ZLB2BED  C2018 06 12.44944 23 40 43.47 +08 10 09.1          21.7 GUNEOCPG96
     ZLB2BED KC2018 06 13AeAstrometrybg3+1V1G8_as%;8_;@xIG`!ICXRm#sY?;lKLH6s:J04
     ZLB2BED KC2018 06 13v54!P:EGlnH,orP(JC+xV$9HO?J@8eMSqWY1XpOd@!:H%8-#n1p=J04
     ZLB2BED KC2018 06 13;5A[(,QU9HgM3iSk:redacted;\VZ7J\=bCtWTkNIZo^b5ro]_BKJ04
     ZLB2BED |C2018 06 17(PvfL0$wlu_5oD:jmu:,7pA/eYH.*+8'see$M8\$*WctMZg$eqT4807
     ZLB2BED |C2018 06 17m=TLf0qT0R27jo;OLYIymAAq`]j27$%UX+ut;F(%x;qi0f\yA6lW807
     ZLB2BED |C2018 06 17dVn.h,2G;ER6sG\'ZqR#'u=Sd2d(iY61?#YZHeJug`QH@HxNEOCP807
     ZLB2BED  C2018 06 18.40814 23 53 20.68 +11 27 18.9          20.4 GUNEOCPI52
     ZLB2BED  C2018 06 18.40938 23 53 20.81 +11 27 21.5          20.6 GUNEOCPI52
     ZLB2BED  C2018 06 18.41063 23 53 21.03 +11 27 23.9          20.5 GUNEOCPI52
     ZLB2BED  C2018 06 18.41187 23 53 21.16 +11 27 25.6          20.6 GUNEOCPI52

Station data:
(807) Cerro Tololo Observatory, La Serena  (S30.169136 W70.805900)  Chile.
   1.5-m Ritchey-Chrétien.
(G96) Mt. Lemmon Survey  (N32.442754 W110.788720)  US/Arizona.  Observers B.
   M. Africano, E. J. Christensen, D. C. Fuls, A. R. Gibbs, A. D. Grauer, J.
   A. Johnson, R. A. Kowalski, S. M. Larson, G. J. Leonard, R. L. Seaman, F.
   C. Shelly. 1.5-m reflector + 10K CCD.
(I52) Steward Observatory, Mt. Lemmon Station  (N32.442547 W110.788920)
   US/Arizona.  Observers B. M. Africano, E. J. Christensen, D. C. Fuls, A.
   R. Gibbs, A. D. Grauer, J. A. Johnson, R. A. Kowalski, S. M. Larson, G. J.
   Leonard, R. L. Seaman, F. C. Shelly. 1.0-m reflector + CCD.
(J04) ESA Optical Ground Station, Tenerife  (N28.300924 W16.511830)  Canary
   Islands (Spain).  Observer D. Abreu. Measurers M. Micheli, D. Koschny, E.
   Schwab, M. Busch, A. Knöfel. 1.0-m f/4.4 reflector + CCD.

Orbital elements:  ZLB2BED
   Perihelion 2018 Aug 27.841690 TT = 20:12:02 (JD 2458358.341690)
Epoch 2018 Jun 18.0 TT = JDT 2458287.5   Earth MOID: 0.5470   AutoNEOCP
M 339.81326                         (J2000 ecliptic)
n   0.28495557     Peri.   70.80630
a   2.28709716     Node   298.18778
e   0.3830878      Incl.   22.25945
P   3.46           H   17.9     G   0.15   q 1.41093803  Q 3.16325629
From 16 observations 2018 June 12-18; mean residual 0".26
Residuals in arcseconds: 
180612 G96  .22-  .02+    180613 J04  .19-  .03-    180618 I52  .20-  .37+    
180612 G96  .39-  .32-    180613 J04  .06-  .07+    180618 I52  .60-  .45+    
180612 G96  .14+  .08+    180613 J04  .25+  .20+    180618 I52  .32+  .31+    
180612 G96  .26+  .07-    180617 807  .03+  .25-    180618 I52  .08-  .51-    
180612 G96  .17+  .17+    180617 807  .10+  .18-    
180612 G96  .10-  .00     180617 807  .39+  .28-    

Ephemerides (geocentric):
Date (UTC) HH   RA              Dec         delta   r     elong  mag
---- -- -- --  -------------   -----------  ------ ------ -----  ---
2018 06 18 11  23 53 26.778   +11 29 03.12  1.2704 1.5404  83.9 20.9
2018 06 18 12  23 53 32.102   +11 30 27.51  1.2701 1.5402  83.9 20.9
2018 06 18 13  23 53 37.427   +11 31 51.91  1.2697 1.5401  83.9 20.9
2018 06 18 14  23 53 42.753   +11 33 16.35  1.2693 1.5399  83.9 20.9
2018 06 18 15  23 53 48.079   +11 34 40.80  1.2689 1.5398  84.0 20.9
2018 06 18 16  23 53 53.405   +11 36 05.27  1.2685 1.5397  84.0 20.9
2018 06 18 17  23 53 58.732   +11 37 29.77  1.2682 1.5395  84.0 20.9
2018 06 18 18  23 54 04.059   +11 38 54.29  1.2678 1.5394  84.0 20.9
2018 06 18 19  23 54 09.386   +11 40 18.83  1.2674 1.5392  84.0 20.9
2018 06 18 20  23 54 14.715   +11 41 43.40  1.2670 1.5391  84.0 20.9
2018 06 18 21  23 54 20.043   +11 43 07.98  1.2666 1.5390  84.0 20.9
2018 06 18 22  23 54 25.372   +11 44 32.59  1.2663 1.5388  84.0 20.9
2018 06 18 23  23 54 30.702   +11 45 57.22  1.2659 1.5387  84.0 20.9
2018 06 19 00  23 54 36.032   +11 47 21.87  1.2655 1.5385  84.0 20.9
2018 06 19 01  23 54 41.363   +11 48 46.54  1.2651 1.5384  84.1 20.9
2018 06 19 02  23 54 46.694   +11 50 11.24  1.2648 1.5383  84.1 20.9
2018 06 19 03  23 54 52.025   +11 51 35.96  1.2644 1.5381  84.1 20.9
2018 06 19 04  23 54 57.357   +11 53 00.70  1.2640 1.5380  84.1 20.9
2018 06 19 05  23 55 02.690   +11 54 25.46  1.2636 1.5378  84.1 20.9
2018 06 19 06  23 55 08.023   +11 55 50.24  1.2632 1.5377  84.1 20.9
2018 06 19 07  23 55 13.356   +11 57 15.05  1.2629 1.5376  84.1 20.9
2018 06 19 08  23 55 18.690   +11 58 39.87  1.2625 1.5374  84.1 20.9
2018 06 19 09  23 55 24.024   +12 00 04.72  1.2621 1.5373  84.1 20.9
2018 06 19 10  23 55 29.359   +12 01 29.59  1.2617 1.5371  84.1 20.9
2018 06 19 11  23 55 34.695   +12 02 54.49  1.2614 1.5370  84.2 20.9
2018 06 19 12  23 55 40.031   +12 04 19.40  1.2610 1.5369  84.2 20.9
2018 06 19 13  23 55 45.367   +12 05 44.34  1.2606 1.5367  84.2 20.9
2018 06 19 14  23 55 50.704   +12 07 09.30  1.2602 1.5366  84.2 20.9
2018 06 19 15  23 55 56.041   +12 08 34.28  1.2599 1.5364  84.2 20.9
2018 06 19 16  23 56 01.379   +12 09 59.28  1.2595 1.5363  84.2 20.9
2018 06 19 17  23 56 06.718   +12 11 24.30  1.2591 1.5362  84.2 20.9
2018 06 19 18  23 56 12.057   +12 12 49.35  1.2587 1.5360  84.2 20.9
2018 06 19 19  23 56 17.396   +12 14 14.41  1.2584 1.5359  84.2 20.9
2018 06 19 20  23 56 22.736   +12 15 39.50  1.2580 1.5357  84.2 20.9
2018 06 19 21  23 56 28.076   +12 17 04.61  1.2576 1.5356  84.3 20.9
2018 06 19 22  23 56 33.417   +12 18 29.74  1.2572 1.5355  84.3 20.9
2018 06 19 23  23 56 38.759   +12 19 54.90  1.2569 1.5353  84.3 20.9
2018 06 20 00  23 56 44.100   +12 21 20.07  1.2565 1.5352  84.3 20.9
2018 06 20 01  23 56 49.443   +12 22 45.27  1.2561 1.5350  84.3 20.9
2018 06 20 02  23 56 54.786   +12 24 10.49  1.2557 1.5349  84.3 20.9
2018 06 20 03  23 57 00.129   +12 25 35.73  1.2554 1.5348  84.3 20.9
2018 06 20 04  23 57 05.473   +12 27 00.99  1.2550 1.5346  84.3 20.9
2018 06 20 05  23 57 10.818   +12 28 26.27  1.2546 1.5345  84.3 20.9
2018 06 20 06  23 57 16.163   +12 29 51.58  1.2543 1.5344  84.3 20.9
2018 06 20 07  23 57 21.508   +12 31 16.91  1.2539 1.5342  84.3 20.9
2018 06 20 08  23 57 26.854   +12 32 42.25  1.2535 1.5341  84.4 20.9
2018 06 20 09  23 57 32.201   +12 34 07.62  1.2531 1.5339  84.4 20.9
2018 06 20 10  23 57 37.548   +12 35 33.01  1.2528 1.5338  84.4 20.9